| time (UTC) | temp F | wind direction | speed knots | gust knots | rain 1hr in | rain 24hr in | rain mn in | humidity % | barometer mb |
| 20260507121509 | 52 | 138 | 7.8 | 12.2 | 0.00 | 0.00 | 0.00 | 36 | 1016.9 |
| 20260507120009 | 52 | 150 | 9.6 | 16.5 | 0.00 | 0.00 | 0.00 | 37 | 1016.9 |
| 20260507114510 | 52 | 167 | 7.0 | 13.0 | 0.00 | 0.00 | 0.00 | 36 | 1016.8 |
| 20260507113014 | 52 | 171 | 6.1 | 19.1 | 0.00 | 0.00 | 0.00 | 34 | 1016.9 |
| 20260507110024 | 51 | 168 | 7.8 | 11.3 | 0.00 | 0.00 | 0.00 | 30 | 1017.0 |
| 20260507104510 | 51 | 189 | 4.3 | 13.9 | 0.00 | 0.00 | 0.00 | 31 | 1016.8 |
| 20260507103009 | 52 | 159 | 4.3 | 10.4 | 0.00 | 0.00 | 0.00 | 29 | 1016.8 |
| 20260507101510 | 51 | 163 | 5.2 | 12.2 | 0.00 | 0.00 | 0.00 | 29 | 1016.7 |
| 20260507100018 | 51 | 198 | 3.5 | 10.4 | 0.00 | 0.00 | 0.00 | 29 | 1016.6 |
| 20260507094509 | 51 | 191 | 2.6 | 10.4 | 0.00 | 0.00 | 0.00 | 28 | 1016.5 |
| 20260507093013 | 53 | 172 | 2.6 | 10.4 | 0.00 | 0.00 | 0.00 | 26 | 1016.5 |
| 20260507091513 | 52 | 212 | 2.6 | 7.8 | 0.00 | 0.00 | 0.00 | 26 | 1016.5 |
| 20260507090009 | 52 | 209 | 1.7 | 7.0 | 0.00 | 0.00 | 0.00 | 26 | 1016.6 |
| 20260507084517 | 51 | 191 | 5.2 | 8.7 | 0.00 | 0.00 | 0.00 | 27 | 1016.6 |
| 20260507083009 | 52 | 154 | 0.9 | 6.1 | 0.00 | 0.00 | 0.00 | 27 | 1016.6 |
| 20260507081510 | 49 | 144 | 2.6 | 8.7 | 0.00 | 0.00 | 0.00 | 29 | 1016.5 |
| 20260507080009 | 51 | 190 | 0.9 | 5.2 | 0.00 | 0.00 | 0.00 | 28 | 1016.4 |
| 20260507074510 | 52 | 340 | 1.7 | 3.5 | 0.00 | 0.00 | 0.00 | 28 | 1016.3 |
| 20260507073010 | 52 | 344 | 0.0 | 2.6 | 0.00 | 0.00 | 0.00 | 31 | 1016.3 |
| 20260507071511 | 48 | 344 | 1.7 | 5.2 | 0.00 | 0.00 | 0.00 | 34 | 1016.3 |
| 20260507070012 | 47 | 349 | 0.9 | 4.3 | 0.00 | 0.00 | 0.00 | 38 | 1016.3 |
| 20260507064509 | 45 | 350 | 1.7 | 4.3 | 0.00 | 0.00 | 0.00 | 41 | 1016.3 |
| 20260507063024 | 44 | 355 | 1.7 | 4.3 | 0.00 | 0.00 | 0.00 | 43 | 1016.2 |
| 20260507061510 | 42 | 24 | 3.5 | 7.0 | 0.00 | 0.00 | 0.00 | 45 | 1016.3 |
| 20260507060017 | 42 | 14 | 2.6 | 7.0 | 0.00 | 0.00 | 0.00 | 46 | 1016.3 |
| 20260507054511 | 40 | 355 | 0.9 | 7.8 | 0.00 | 0.00 | 0.00 | 51 | 1016.2 |
| 20260507053010 | 39 | 355 | 2.6 | 7.0 | 0.00 | 0.00 | 0.00 | 54 | 1016.1 |
| 20260507051510 | 37 | 360 | 2.6 | 7.8 | 0.00 | 0.00 | 0.00 | 58 | 1015.9 |
| 20260507050010 | 35 | 22 | 1.7 | 7.8 | 0.00 | 0.00 | 0.00 | 60 | 1015.8 |
| 20260507044510 | 33 | 17 | 5.2 | 8.7 | 0.00 | 0.00 | 0.00 | 65 | 1015.7 |
| 20260507043009 | 32 | 19 | 1.7 | 5.2 | 0.00 | 0.00 | 0.00 | 68 | 1015.6 |
| 20260507041509 | 32 | 23 | 4.3 | 7.8 | 0.00 | 0.00 | 0.00 | 69 | 1015.5 |
| 20260507040009 | 31 | 360 | 3.5 | 7.0 | 0.00 | 0.00 | 0.00 | 71 | 1015.4 |
| 20260507034525 | 31 | 355 | 2.6 | 4.3 | 0.00 | 0.00 | 0.00 | 71 | 1015.2 |
| 20260507033010 | 31 | 355 | 1.7 | 4.3 | 0.00 | 0.00 | 0.00 | 70 | 1015.1 |
| 20260507031512 | 32 | 355 | 2.6 | 4.3 | 0.00 | 0.00 | 0.00 | 69 | 1015.0 |
| 20260507030011 | 32 | 355 | 2.6 | 5.2 | 0.00 | 0.00 | 0.00 | 70 | 1015.0 |
| 20260507024510 | 31 | 355 | 1.7 | 4.3 | 0.00 | 0.00 | 0.00 | 71 | 1014.9 |
| 20260507023010 | 32 | 355 | 1.7 | 4.3 | 0.00 | 0.00 | 0.00 | 69 | 1014.7 |
| 20260507021509 | 32 | 355 | 1.7 | 4.3 | 0.00 | 0.00 | 0.00 | 67 | 1014.6 |
| 20260507020024 | 32 | 355 | 2.6 | 5.2 | 0.00 | 0.00 | 0.00 | 67 | 1014.5 |
| 20260507014509 | 32 | 355 | 3.5 | 5.2 | 0.00 | 0.00 | 0.00 | 67 | 1014.4 |
| 20260507013017 | 33 | 355 | 3.5 | 5.2 | 0.00 | 0.00 | 0.00 | 67 | 1014.2 |
| 20260507011510 | 33 | 351 | 3.5 | 5.2 | 0.00 | 0.00 | 0.00 | 67 | 1014.2 |
| 20260507010009 | 34 | 350 | 2.6 | 7.0 | 0.00 | 0.00 | 0.00 | 64 | 1014.1 |
| 20260507004510 | 34 | 355 | 2.6 | 7.0 | 0.00 | 0.00 | 0.00 | 65 | 1014.0 |
| 20260507003010 | 34 | 355 | 2.6 | 5.2 | 0.00 | 0.00 | 0.00 | 64 | 1014.0 |
| 20260507001509 | 35 | 355 | 4.3 | 7.0 | 0.00 | 0.00 | 0.00 | 64 | 1013.9 |
| 20260507000009 | 35 | 355 | 2.6 | 5.2 | 0.00 | 0.00 | 0.00 | 63 | 1013.8 |
| 20260506234518 | 36 | 355 | 1.7 | 4.3 | 0.00 | 0.00 | 0.00 | 61 | 1013.7 |
| 20260506233011 | 36 | 355 | 3.5 | 5.2 | 0.00 | 0.00 | 0.00 | 61 | 1013.7 |
| 20260506231509 | 37 | 355 | 1.7 | 5.2 | 0.00 | 0.00 | 0.00 | 58 | 1013.7 |
| 20260506230010 | 37 | 360 | 1.7 | 3.5 | 0.00 | 0.00 | 0.00 | 58 | 1013.6 |
| 20260506224510 | 39 | 5 | 0.9 | 5.2 | 0.00 | 0.00 | 0.00 | 55 | 1013.5 |
| 20260506223010 | 39 | 5 | 1.7 | 7.0 | 0.00 | 0.00 | 0.00 | 51 | 1013.5 |
| 20260506221509 | 39 | 5 | 1.7 | 5.2 | 0.00 | 0.00 | 0.00 | 53 | 1013.4 |
| 20260506220020 | 41 | 9 | 1.7 | 7.0 | 0.00 | 0.00 | 0.00 | 47 | 1013.3 |
| 20260506214510 | 42 | 11 | 4.3 | 7.0 | 0.00 | 0.00 | 0.00 | 43 | 1013.1 |
| 20260506213009 | 43 | 21 | 5.2 | 8.7 | 0.00 | 0.00 | 0.00 | 42 | 1013.1 |
| 20260506211514 | 43 | 14 | 5.2 | 9.6 | 0.00 | 0.00 | 0.00 | 41 | 1012.9 |
| 20260506210012 | 43 | 16 | 4.3 | 7.8 | 0.00 | 0.00 | 0.00 | 40 | 1012.8 |
| 20260506204509 | 44 | 351 | 4.3 | 7.8 | 0.00 | 0.00 | 0.00 | 40 | 1012.7 |
| 20260506201510 | 45 | 345 | 4.3 | 7.0 | 0.00 | 0.00 | 0.00 | 38 | 1012.5 |
| 20260506200020 | 46 | 344 | 1.7 | 7.8 | 0.00 | 0.00 | 0.00 | 36 | 1012.3 |
| 20260506194509 | 46 | 336 | 2.6 | 8.7 | 0.00 | 0.00 | 0.00 | 35 | 1012.3 |
| 20260506193009 | 47 | 338 | 4.3 | 8.7 | 0.00 | 0.00 | 0.00 | 33 | 1012.3 |
| 20260506191510 | 48 | 329 | 2.6 | 7.0 | 0.00 | 0.00 | 0.00 | 33 | 1012.1 |
| 20260506190002 | 48 | 328 | 4.3 | 7.0 | 0.00 | 0.00 | 0.00 | 36 | 1012.0 |
| 20260506184505 | 49 | 101 | 0.0 | 1.7 | 0.00 | 0.00 | 0.00 | 48 | 1011.8 |
| 20260506183009 | 48 | 101 | 0.0 | 1.7 | 0.00 | 0.00 | 0.00 | 53 | 1011.8 |
| 20260506181516 | 48 | 101 | 1.7 | 5.2 | 0.00 | 0.00 | 0.00 | 55 | 1011.5 |
| 20260506180016 | 49 | 111 | 0.9 | 5.2 | 0.00 | 0.00 | 0.00 | 53 | 1011.3 |
| 20260506174510 | 48 | 145 | 3.5 | 9.6 | 0.00 | 0.00 | 0.00 | 55 | 1011.3 |
| 20260506173009 | 49 | 117 | 1.7 | 7.8 | 0.00 | 0.00 | 0.00 | 53 | 1011.3 |
| 20260506171509 | 50 | 129 | 4.3 | 10.4 | 0.00 | 0.00 | 0.00 | 45 | 1011.3 |
| 20260506170009 | 50 | 108 | 5.2 | 12.2 | 0.00 | 0.00 | 0.00 | 46 | 1011.3 |
| 20260506164511 | 51 | 138 | 5.2 | 9.6 | 0.00 | 0.00 | 0.00 | 40 | 1011.3 |
| 20260506163010 | 51 | 167 | 6.1 | 10.4 | 0.00 | 0.00 | 0.00 | 39 | 1011.4 |
| 20260506161511 | 51 | 173 | 7.0 | 9.6 | 0.00 | 0.00 | 0.00 | 36 | 1011.3 |
| 20260506154509 | 50 | 170 | 3.5 | 13.0 | 0.00 | 0.00 | 0.00 | 34 | 1011.4 |
| 20260506153009 | 51 | 187 | 7.0 | 11.3 | 0.00 | 0.00 | 0.00 | 33 | 1011.5 |
| 20260506150010 | 50 | 166 | 7.8 | 17.4 | 0.00 | 0.00 | 0.00 | 33 | 1011.6 |
| 20260506144510 | 49 | 177 | 7.0 | 13.0 | 0.00 | 0.00 | 0.00 | 35 | 1011.6 |
| 20260506143010 | 50 | 161 | 7.8 | 13.0 | 0.00 | 0.00 | 0.00 | 32 | 1011.7 |
| 20260506141509 | 50 | 170 | 8.7 | 12.2 | 0.00 | 0.00 | 0.00 | 31 | 1011.7 |
| 20260506140010 | 50 | 208 | 7.0 | 13.9 | 0.00 | 0.00 | 0.00 | 31 | 1011.8 |
| 20260506134509 | 50 | 197 | 8.7 | 13.0 | 0.00 | 0.00 | 0.00 | 32 | 1011.9 |
| 20260506133013 | 50 | 180 | 4.3 | 13.0 | 0.00 | 0.00 | 0.00 | 32 | 1011.9 |
| 20260506131516 | 49 | 180 | 7.0 | 14.8 | 0.00 | 0.00 | 0.00 | 34 | 1011.9 |
| 20260506130015 | 49 | 216 | 6.1 | 13.0 | 0.00 | 0.00 | 0.00 | 35 | 1012.0 |
| 20260506124509 | 49 | 205 | 7.8 | 17.4 | 0.00 | 0.00 | 0.00 | 37 | 1012.0 |
| 20260506123009 | 49 | 206 | 7.8 | 13.9 | 0.00 | 0.00 | 0.00 | 37 | 1012.1 |